Hazard, Kentucky, United States (41701)
Lat: 37.25N, Lon: 83.19W
Wx Zone: KYZ115
Local Info
Past Weather Observations for Thursday, February 4, 2016

NOTE: This archive is for the closest National Weather Service station to Hazard. Information may differ from the station used for current weather conditions.

Click here for Long-term Archive

Time Weather Temperature Dewpoint Humidity Pressure Winds Precip Visibility
23:53
Overcast
30°F / -1°C 16°F / -9°C 55% 30.3 in
(1026 mb)
NW 4.6 mph
(NW 7 kph)
- 10SM
22:53
Overcast
30°F / -1°C 16°F / -9°C 55% 30.3 in
(1026 mb)
NW 5.8 mph
(NW 9 kph)
- 10SM
21:53
Overcast
30°F / -1°C 18°F / -8°C 59% 30.27 in
(1025 mb)
Variable 4.6 mph
(Variable 7 kph)
- 10SM
20:53
Overcast
32°F / 0°C 19°F / -7°C 60% 30.27 in
(1025 mb)
NW 4.6 mph
(NW 7 kph)
- 10SM
19:53
Overcast
32°F / 0°C 19°F / -7°C 60% 30.24 in
(1024 mb)
Variable 3.5 mph
(Variable 6 kph)
- 10SM
18:53
Overcast
34°F / 1°C 19°F / -7°C 56% 30.24 in
(1024 mb)
Calm - 10SM
17:53
Overcast
34°F / 1°C 19°F / -7°C 56% 30.21 in
(1023 mb)
Variable 5.8 mph
(Variable 9 kph)
- 10SM
16:53
Overcast
34°F / 1°C 21°F / -6°C 60% 30.18 in
(1022 mb)
NW 5.8 mph
(NW 9 kph)
- 10SM
15:53
Overcast
36°F / 2°C 21°F / -6°C 56% 30.18 in
(1022 mb)
Variable 4.6 mph
(Variable 7 kph)
- 10SM
14:53
Overcast
36°F / 2°C 21°F / -6°C 56% 30.15 in
(1021 mb)
NW 6.9 mph
(NW 11 kph)
- 10SM
14:30
Overcast
37°F / 3°C 23°F / -5°C 56% 30.18 in
(1022 mb)
Variable 4.6 mph
(Variable 7 kph)
- 10SM
14:18
Overcast
36°F / 2°C 21°F / -6°C 56% 30.15 in
(1021 mb)
Variable 3.5 mph
(Variable 6 kph)
- 10SM
13:53
Overcast
36°F / 2°C 21°F / -6°C 56% 30.15 in
(1021 mb)
NW 6.9 mph
(NW 11 kph)
- 10SM
12:53
Overcast
36°F / 2°C 21°F / -6°C 56% 30.18 in
(1022 mb)
Variable 4.6 mph
(Variable 7 kph)
- 10SM
11:53
Overcast
36°F / 2°C 23°F / -5°C 60% 30.18 in
(1022 mb)
NW 5.8 mph
(NW 9 kph)
- 10SM
10:53
Overcast
36°F / 2°C 23°F / -5°C 60% 30.21 in
(1023 mb)
Variable 4.6 mph
(Variable 7 kph)
- 10SM
09:53
Overcast
36°F / 2°C 25°F / -4°C 65% 30.18 in
(1022 mb)
NW 5.8 mph
(NW 9 kph)
- 10SM
08:53
Overcast
36°F / 2°C 25°F / -4°C 65% 30.18 in
(1022 mb)
Variable 4.6 mph
(Variable 7 kph)
- 10SM
07:53
Overcast
36°F / 2°C 27°F / -3°C 70% 30.15 in
(1021 mb)
NNW 4.6 mph
(NNW 7 kph)
- 10SM
07:43
Overcast
36°F / 2°C 27°F / -3°C 70% 30.15 in
(1021 mb)
Calm - 10SM
06:53
Overcast
36°F / 2°C 27°F / -3°C 70% 30.15 in
(1021 mb)
WNW 4.6 mph
(WNW 7 kph)
- 10SM
06:43
Overcast
36°F / 2°C 27°F / -3°C 70% 30.15 in
(1021 mb)
Variable 3.5 mph
(Variable 6 kph)
- 10SM
05:53
Overcast
36°F / 2°C 27°F / -3°C 70% 30.15 in
(1021 mb)
WNW 5.8 mph
(WNW 9 kph)
- 10SM
04:53
Overcast
36°F / 2°C 27°F / -3°C 70% 30.12 in
(1020 mb)
Calm - 10SM
03:53
Overcast
37°F / 3°C 27°F / -3°C 65% 30.12 in
(1020 mb)
Variable 5.8 mph
(Variable 9 kph)
- 10SM
02:53
Overcast
37°F / 3°C 28°F / -2°C 70% 30.12 in
(1020 mb)
SSW 3.5 mph
(SSW 6 kph)
- 10SM
02:24
Overcast
37°F / 3°C 27°F / -3°C 65% 30.12 in
(1020 mb)
Calm - 10SM
01:53
Mostly Cloudy
37°F / 3°C 28°F / -2°C 70% 30.12 in
(1020 mb)
Variable 4.6 mph
(Variable 7 kph)
- 10SM
00:53
Overcast
37°F / 3°C 28°F / -2°C 70% 30.09 in
(1019 mb)
SSW 3.5 mph
(SSW 6 kph)
- 10SM
00:50
Overcast
37°F / 3°C 28°F / -2°C 70% 30.09 in
(1019 mb)
Variable 4.6 mph
(Variable 7 kph)
- 10SM
Time Weather Temperature Dewpoint Humidity Pressure Winds Precip Visibility


Weather for websites

WeatherForYou.com, LLC is not responsible for any damages or problems caused by this service. Current weather conditions are obtained from the closest station including government and personal stations which may have varying degrees of accuracy. Weather forecasts are derived from the NOAA NDFD. Like all things, this site belongs to Jesus Christ... He just trusts us to maintain it. If you have any questions or comments email webmaster@weatherforyou.com

Copyright © 2016, WeatherForYou.com LLC. All rights reserved.